Tiempo cada hora Cayo Carenero

Hoy, 18 Enero, Lunes

Tiempo Temperatura Precipitaciones Viento Presión Humedad
00:00 +25°C° 0 mm 3 mps 759 mmHg 79%
01:00 +25°C° 0 mm 3 mps 759 mmHg 76%
02:00 +25°C° 0 mm 3 mps 759 mmHg 74%
03:00 +25°C° 0 mm 3 mps 758 mmHg 72%
04:00 +24°C° 0 mm 3 mps 758 mmHg 70%
05:00 +24°C° 0 mm 3 mps 758 mmHg 69%
06:00 +24°C° 0 mm 3 mps 759 mmHg 68%
07:00 +24°C° 0 mm 3 mps 759 mmHg 68%
08:00 +26°C° 0 mm 2 mps 759 mmHg 64%
09:00 +28°C° 0 mm 2 mps 760 mmHg 59%
10:00 +29°C° 0 mm 2 mps 760 mmHg 55%
11:00 +29°C° 0.2 mm 3 mps 760 mmHg 58%
12:00 +30°C° 0.2 mm 3 mps 759 mmHg 62%
13:00 +30°C° 0.2 mm 4 mps 759 mmHg 65%
14:00 +29°C° 0.9 mm 4 mps 759 mmHg 71%
15:00 +29°C° 0.9 mm 4 mps 758 mmHg 76%
16:00 +28°C° 0.9 mm 4 mps 757 mmHg 82%
17:00 +28°C° 0.3 mm 4 mps 757 mmHg 83%
18:00 +27°C° 0.3 mm 3 mps 758 mmHg 84%
19:00 +27°C° 0.3 mm 2 mps 758 mmHg 85%
20:00 +26°C° 0.1 mm 2 mps 759 mmHg 85%
21:00 +26°C° 0.1 mm 3 mps 759 mmHg 86%
22:00 +26°C° 0.1 mm 3 mps 760 mmHg 87%
23:00 +25°C° 0.2 mm 3 mps 759 mmHg 86%

Mañana, 19 Enero, Martes

Tiempo Temperatura Precipitaciones Viento Presión Humedad
00:00 +25°C° 0.2 mm 3 mps 759 mmHg 85%
01:00 +25°C° 0.2 mm 4 mps 759 mmHg 84%
02:00 +23°C° 0.1 mm 4 mps 759 mmHg 82%
03:00 +23°C° 0.1 mm 4 mps 759 mmHg 80%
04:00 +23°C° 0.1 mm 4 mps 758 mmHg 78%
05:00 +23°C° 0.2 mm 4 mps 758 mmHg 77%
06:00 +24°C° 0.2 mm 3 mps 759 mmHg 76%
07:00 +25°C° 0.2 mm 3 mps 759 mmHg 75%
08:00 +26°C° 0.1 mm 3 mps 759 mmHg 71%
09:00 +27°C° 0.1 mm 3 mps 760 mmHg 67%
10:00 +28°C° 0.1 mm 4 mps 760 mmHg 64%
11:00 +29°C° 0 mm 4 mps 760 mmHg 62%
12:00 +30°C° 0 mm 4 mps 759 mmHg 60%
13:00 +32°C° 0 mm 4 mps 759 mmHg 59%
14:00 +30°C° 0.1 mm 4 mps 758 mmHg 65%
15:00 +29°C° 0.1 mm 4 mps 757 mmHg 71%
16:00 +28°C° 0.1 mm 4 mps 757 mmHg 77%
17:00 +27°C° 0.7 mm 4 mps 757 mmHg 80%
18:00 +27°C° 0.7 mm 4 mps 758 mmHg 83%
19:00 +26°C° 0.7 mm 4 mps 758 mmHg 86%
20:00 +26°C° 0.8 mm 4 mps 758 mmHg 85%
21:00 +26°C° 0.8 mm 4 mps 759 mmHg 85%
22:00 +26°C° 0.8 mm 3 mps 759 mmHg 84%
23:00 +26°C° 1 mm 3 mps 759 mmHg 85%

Pasado mañana, 20 Enero, Miércoles

Tiempo Temperatura Precipitaciones Viento Presión Humedad
00:00 +26°C° 1 mm 3 mps 759 mmHg 86%
01:00 +25°C° 1 mm 3 mps 759 mmHg 88%
02:00 +25°C° 1.2 mm 3 mps 758 mmHg 88%
03:00 +25°C° 1.2 mm 3 mps 758 mmHg 89%
04:00 +25°C° 1.2 mm 3 mps 758 mmHg 90%
05:00 +25°C° 0.6 mm 3 mps 758 mmHg 89%
06:00 +25°C° 0.6 mm 3 mps 758 mmHg 89%
07:00 +25°C° 0.6 mm 3 mps 759 mmHg 89%
08:00 +26°C° 0.4 mm 3 mps 759 mmHg 84%
09:00 +28°C° 0.4 mm 3 mps 759 mmHg 79%
10:00 +29°C° 0.4 mm 4 mps 760 mmHg 73%
11:00 +30°C° 0.2 mm 4 mps 759 mmHg 72%
12:00 +30°C° 0.2 mm 4 mps 759 mmHg 70%
13:00 +30°C° 0.2 mm 4 mps 758 mmHg 68%
14:00 +30°C° 0.4 mm 4 mps 758 mmHg 72%
15:00 +30°C° 0.4 mm 4 mps 757 mmHg 76%
16:00 +29°C° 0.4 mm 4 mps 757 mmHg 79%
17:00 +28°C° 0.8 mm 4 mps 757 mmHg 81%
18:00 +28°C° 0.8 mm 4 mps 757 mmHg 83%
19:00 +27°C° 0.8 mm 4 mps 757 mmHg 86%
20:00 +27°C° 1 mm 3 mps 758 mmHg 86%
21:00 +27°C° 1 mm 3 mps 758 mmHg 86%
22:00 +26°C° 1 mm 3 mps 759 mmHg 86%
23:00 +26°C° 1.6 mm 3 mps 758 mmHg 86%

21 Enero, Jueves

Tiempo Temperatura Precipitaciones Viento Presión Humedad
00:00 +26°C° 1.6 mm 3 mps 758 mmHg 86%
01:00 +26°C° 1.6 mm 3 mps 758 mmHg 86%
02:00 +26°C° 1.7 mm 3 mps 758 mmHg 86%
03:00 +26°C° 1.7 mm 3 mps 758 mmHg 86%
04:00 +25°C° 1.7 mm 3 mps 758 mmHg 87%
05:00 +25°C° 1.1 mm 2 mps 758 mmHg 87%
06:00 +25°C° 1.1 mm 2 mps 758 mmHg 86%
07:00 +25°C° 1.1 mm 2 mps 758 mmHg 86%
08:00 +26°C° 0.5 mm 2 mps 759 mmHg 83%
09:00 +27°C° 0.5 mm 2 mps 759 mmHg 80%
10:00 +28°C° 0.5 mm 1 mps 760 mmHg 77%
11:00 +29°C° 0.2 mm 2 mps 759 mmHg 73%
12:00 +30°C° 0.2 mm 2 mps 759 mmHg 69%
13:00 +30°C° 0.2 mm 2 mps 758 mmHg 65%
14:00 +30°C° 0.3 mm 3 mps 758 mmHg 67%
15:00 +30°C° 0.3 mm 3 mps 757 mmHg 70%
16:00 +29°C° 0.3 mm 3 mps 757 mmHg 73%
17:00 +28°C° 1 mm 3 mps 757 mmHg 77%
18:00 +28°C° 1 mm 4 mps 757 mmHg 81%
19:00 +27°C° 1 mm 4 mps 757 mmHg 85%
20:00 +27°C° 0.6 mm 3 mps 758 mmHg 85%
21:00 +26°C° 0.6 mm 3 mps 758 mmHg 85%
22:00 +26°C° 0.6 mm 2 mps 759 mmHg 85%
23:00 +26°C° 0.8 mm 2 mps 759 mmHg 85%

22 Enero, Viernes

Tiempo Temperatura Precipitaciones Viento Presión Humedad
00:00 +26°C° 0.8 mm 2 mps 759 mmHg 85%
01:00 +25°C° 0.8 mm 2 mps 758 mmHg 85%
02:00 +25°C° 0.6 mm 2 mps 758 mmHg 86%
03:00 +25°C° 0.6 mm 2 mps 758 mmHg 86%
04:00 +25°C° 0.6 mm 3 mps 758 mmHg 87%
05:00 +25°C° 0.1 mm 2 mps 758 mmHg 86%
06:00 +25°C° 0.1 mm 2 mps 758 mmHg 85%
07:00 +25°C° 0.1 mm 2 mps 759 mmHg 84%
08:00 +26°C° 0.1 mm 2 mps 759 mmHg 79%
09:00 +27°C° 0.1 mm 2 mps 759 mmHg 74%
10:00 +29°C° 0.1 mm 2 mps 760 mmHg 69%
11:00 +29°C° 0.1 mm 2 mps 759 mmHg 68%
12:00 +30°C° 0.1 mm 1 mps 759 mmHg 67%
13:00 +30°C° 0.1 mm 1 mps 758 mmHg 66%
14:00 +30°C° 0 mm 1 mps 758 mmHg 66%
15:00 +30°C° 0 mm 2 mps 757 mmHg 67%
16:00 +29°C° 0 mm 2 mps 757 mmHg 67%
17:00 +29°C° 0 mm 1 mps 757 mmHg 71%
18:00 +28°C° 0 mm 1 mps 758 mmHg 75%
19:00 +25°C° 0 mm 0 mps 758 mmHg 79%
20:00 +27°C° 0 mm 1 mps 758 mmHg 80%
21:00 +26°C° 0 mm 1 mps 759 mmHg 82%
22:00 +26°C° 0 mm 2 mps 759 mmHg 83%
23:00 +26°C° 0 mm 2 mps 759 mmHg 83%

23 Enero, Sábado

Tiempo Temperatura Precipitaciones Viento Presión Humedad
00:00 +25°C° 0 mm 2 mps 759 mmHg 82%
01:00 +25°C° 0 mm 2 mps 758 mmHg 82%
02:00 +25°C° 0 mm 2 mps 758 mmHg 80%
03:00 +25°C° 0 mm 2 mps 758 mmHg 79%
04:00 +25°C° 0 mm 2 mps 758 mmHg 77%
05:00 +25°C° 0.2 mm 2 mps 758 mmHg 75%
06:00 +25°C° 0.2 mm 2 mps 758 mmHg 73%
07:00 +25°C° 0.2 mm 2 mps 758 mmHg 70%
08:00 +26°C° 0.1 mm 2 mps 759 mmHg 69%
09:00 +26°C° 0.1 mm 2 mps 759 mmHg 68%
10:00 +27°C° 0.1 mm 2 mps 760 mmHg 67%
11:00 +28°C° 0 mm 2 mps 759 mmHg 66%
12:00 +29°C° 0 mm 2 mps 758 mmHg 64%
13:00 +30°C° 0 mm 2 mps 758 mmHg 63%
14:00 +30°C° 0 mm 2 mps 757 mmHg 65%
15:00 +30°C° 0 mm 3 mps 757 mmHg 67%
16:00 +30°C° 0 mm 3 mps 756 mmHg 69%
17:00 +29°C° 0.1 mm 3 mps 756 mmHg 73%
18:00 +28°C° 0.1 mm 3 mps 756 mmHg 78%
19:00 +27°C° 0.1 mm 2 mps 757 mmHg 83%
20:00 +27°C° 0.4 mm 2 mps 757 mmHg 83%
21:00 +27°C° 0.4 mm 2 mps 758 mmHg 84%
22:00 +26°C° 0.4 mm 2 mps 758 mmHg 85%
23:00 +26°C° 0.4 mm 2 mps 758 mmHg 84%
Mostrar más